sat.trackr.live / text

‹ back to catalog

STARLINK-11077 [DTC]

NORAD 58707 · 2024-002C

PAYLOAD ACTIVE UNKNOWN

§ Identity

Operator
Country
US
Launch date
2024-01-03
Launch site
AFWTR
Launch vehicle
Mass (kg)
RCS (m²)

Purposes: comms

External: N2YO · Heavens-Above · Gunter

§ Orbital elements

Epoch: 2026-05-25T00:21:47.294208Z

Period
91.74 min
Inclination
53.1593°
Eccentricity
0.0000796
Mean motion
15.69707644 rev/d
Perigee alt
359.2 km
Apogee alt
360.3 km
Semi-major
6,737.9 km
B*
9.5069e-6
RAAN
257.8567°
Arg perigee
76.6023°
Mean anomaly
283.5084°
Rev number
13,842

§ Raw data

STARLINK-11077 [DTC]1 58707U 24002C   26145.01513072  .00000564  00000+0  95069-5 0  99902 58707  53.1593 257.8567 0000796  76.6023 283.5084 15.69707644138428

JSON: /api/v1/satellites/58707 · /tle

For live sub-satellite position, see the globe view (requires WebGL).

§ Visibility from observer

Set your observer location to see the next 7 days of passes ≥ 10°. The values pass through the URL so the page stays shareable.

No JS? Fill the form by hand. The geolocation button needs JavaScript.